Location: Newark
(48.6767°N, 1.3256°E)
Time: 13:54:51
(UTC+00:00)

ISS - Pass Details

Date: 21 November 2019
Orbit: 411 x 421 km, 51.6° (Epoch: 07 December)

Event Time Altitude Azimuth Distance (km) Brightness Sun altitude
Rises 18:11:58 0° 201° (SSW) 2,346 0.4 -20.0°
Reaches altitude 10° 18:14:32 10° 181° (S) 1,490 -0.9 -20.4°
Enters shadow 18:15:07 13° 172° (S) 1,343 -1.2 -20.5°
